Regional Weather Roundup
Issued by NWS

Home | Current Version | Previous Version | Graphics & Text | Print | Product List | Glossary On
Versions: 1 2 3 4 5 6 7 8 9 10 11 12 13 14 15 16 17 18 19 20 21 22 23 24 25 26 27 28 29 30 31 32 33 34 35 36 37 38 39 40 41 42 43 44 45 46 47 48 49 50
000
ASUS43 KBIS 280420
RWRND

NORTH DAKOTA REGIONAL WEATHER ROUNDUP
NATIONAL WEATHER SERVICE BISMARCK ND
1100 PM CDT WED AUG 27 2014

NOTE: "FAIR" INDICATES FEW OR NO CLOUDS BELOW 12,000 FEET WITH NO
SIGNIFICANT WEATHER AND/OR OBSTRUCTIONS TO VISIBILITY.


NDZ001>003-009>011-017-280500-
NORTHWEST NORTH DAKOTA

CITY           SKY/WX    TMP DP  RH WIND       PRES   REMARKS
WILLISTON      CLEAR     70  52  52 S7        29.94F
MINOT          CLEAR     63  57  81 SE7       29.98F
MINOT AFB      CLEAR     62  61  99 S7        29.97F
$$

NDZ018>021-031>035-040>046-280500-
SOUTHWEST NORTH DAKOTA

CITY           SKY/WX    TMP DP  RH WIND       PRES   REMARKS
BISMARCK       CLOUDY    63  60  90 S5        30.04F
DICKINSON      PTCLDY    63  60  90 S12       30.02F
GARRISON         N/A     65  61  87 S9        30.01F
HETTINGER ARPT MOCLDY    61  59  93 S5        30.07S
$$

NDZ004>008-012>016-024-026-027-054-280500-
NORTHEAST NORTH DAKOTA

CITY           SKY/WX    TMP DP  RH WIND       PRES   REMARKS
GRAND FORKS    CLEAR     61  57  87 SE6       30.06S
GRND FRKS AFB  CLEAR     60  60  99 S6        30.07S
DEVILS LAKE    CLEAR     64  55  72 S9        30.03F
$$

NDZ022-023-025-028>030-036>039-047>053-280500-
SOUTHEAST NORTH DAKOTA

CITY           SKY/WX    TMP DP  RH WIND       PRES   REMARKS
FARGO          CLOUDY    66  59  78 SE7       30.07F
JAMESTOWN      CLOUDY    66  61  84 SE8       30.06S
$$



USA.gov is the U.S. government's official web portal to all federal, state and local government web resources and services.